This is the latest recevied weather packets stored in our database for station/object IU2EBF-4. If no packets are shown the sender has not sent any weather packets the latest 10 day(s).
| Time | Temp. | Humidity | Pressure | Rain* | Wind** | Luminosity | Snow |
|---|---|---|---|---|---|---|---|
| 1787748421 | 21.67° C | 56% | 1048 hPa | - | - | - | - |
| 1787747696 | 21.11° C | 55% | 1048 hPa | - | - | - | - |
| 1787746971 | 21.67° C | 55% | 1048 hPa | - | - | - | - |
| 1787746247 | 22.22° C | 53% | 1048 hPa | - | - | - | - |
| 1787745522 | 23.89° C | 53% | 1048 hPa | - | - | - | - |
| 1787744797 | 23.89° C | 52% | 1048 hPa | - | - | - | - |
| 1787744072 | 26.67° C | 50% | 1048 hPa | - | - | - | - |
| 1787743347 | 26.67° C | 53% | 1048 hPa | - | - | - | - |
| 1787742622 | 22.78° C | 56% | 1048 hPa | - | - | - | - |
| 1787741897 | 20° C | 54% | 1048 hPa | - | - | - | - |
| 1787741173 | 21.11° C | 53% | 1048 hPa | - | - | - | - |
| 1787740445 | 23.33° C | 52% | 1048 hPa | - | - | - | - |
| 1787739718 | 22.22° C | 55% | 1048 hPa | - | - | - | - |
| 1787738993 | 21.67° C | 52% | 1048 hPa | - | - | - | - |
| 1787738268 | 24.44° C | 51% | 1048 hPa | - | - | - | - |
| 1787737543 | 22.22° C | 52% | 1048 hPa | - | - | - | - |
| 1787736914 | 23.89° C | 50% | 1048 hPa | - | - | - | - |
| 1787736858 | 23.89° C | 50% | 1048 hPa | - | - | - | - |
| 1787736818 | 23.89° C | 50% | 1048 hPa | - | - | - | - |
| 1787736093 | 22.78° C | 51% | 1048 hPa | - | - | - | - |
| 1787735369 | 24.44° C | 50% | 1048 hPa | - | - | - | - |
| 1787734644 | 25° C | 50% | 1048 hPa | - | - | - | - |
| 1787733919 | 25.56° C | 50% | 1048 hPa | - | - | - | - |
| 1787733194 | 24.44° C | 51% | 1048 hPa | - | - | - | - |
| 1787732469 | 23.89° C | 52% | 1048 hPa | - | - | - | - |
* Rain since midnight (hover to see other rain measurements)
** Current wind speed in m/s (hover to see current wind gust speed)